Regional Weather Roundup
Issued by NWS Newport/Morehead, NC

Home | Current Version | Previous Version | Text Only | Print | Product List | Glossary On
Versions: 1 2 3 4 5 6 7 8 9 10 11 12 13 14 15 16 17 18 19 20 21 22 23 24 25 26 27 28 29 30 31 32 33 34 35 36 37 38 39 40 41 42 43 44 45 46 47 48 49 50
000
ASUS42 KMHX 031026
RWRMHX
WEATHER ROUNDUP FOR EASTERN NORTH CAROLINA
NATIONAL WEATHER SERVICE NEWPORT/MOREHEAD CITY NC
600 AM EDT TUE AUG 03 2021

NOTE: "FAIR" INDICATES FEW OR NO CLOUDS BELOW 12,000 FEET
WITH NO SIGNIFICANT WEATHER AND/OR OBSTRUCTIONS TO VISIBILITY

NCZ015>017-031-032-045>047-102-103-031100-
NORTH COAST

CITY           SKY/WX    TMP DP  RH WIND       PRES   REMARKS
EDENTON        CLOUDY    73  70  92 NE7       30.02S
ELIZABETH CITY MOCLDY    75  67  76 NE12      30.02S
KITTY HAWK     CLOUDY    75  67  76 E12G18    29.99S
MANTEO         CLOUDY    74  70  86 E14G23    30.01R

$$

NCZ045>047-081-094-103-104-031100-
CENTRAL COAST

CITY           SKY/WX    TMP DP  RH WIND       PRES   REMARKS
FRISCO         MOCLDY    74  72  93 E5        29.96F

$$

NCZ095-097-098-100-101-031100-
SOUTHERN COAST

CITY           SKY/WX    TMP DP  RH WIND       PRES   REMARKS
PINEY ISLAND   PTSUNNY   80  74  81 NE13      29.95S
BEAUFORT       MOCLDY    75  74  96 N5        29.95R
CAPE CARTERET  MOCLDY    77  72  84 N8        29.96R
JACKSONVILLE   MOCLDY    72  69  90 N8        29.96S
WILMINGTON     CLOUDY    74  72  93 N8        29.95R


$$

NCZ011>013-027>030-043-044-078>080-089-090>093-098-031100-
COASTAL PLAIN

CITY           SKY/WX    TMP DP  RH WIND       PRES   REMARKS
AHOSKIE        CLOUDY    69  69 100 N3        30.04R
ROCKY MOUNT    MOCLDY    71  65  81 NE3       30.02S
GREENVILLE     LGT RAIN  68  66  94 NE8       30.03S
WASHINGTON     CLOUDY    71  67  89 N8        30.01S
GOLDSBORO      MOCLDY    66  58  77 NE6       29.97S
KINSTON        CLOUDY    68  65  93 N3        30.01S
NEW BERN       MOCLDY    72  69  90 N8        29.98S
HAVELOCK       MOCLDY    74  72  93 N10       29.97S
KENANSVILLE    MOCLDY    68  64  88 CALM      29.99R
RICHLANDS      PTCLDY    70  67  90 NE7       29.98S
CLINTON        MOCLDY    69  68  98 NE3       30.00R
ELIZABETHTOWN  CLOUDY    70  69  95 N3        29.99R
WHITEVILLE     CLOUDY    73  71  92 N6        29.98R

$$

AMZ130-135-150-152-154-156-158-170-250-252-270-ANZ085-086-088-633-658-670-031100-
MARINE OBSERVATIONS

STATION/POSITION TIME  TEMP    WIND        PRES    WAVE   SWELL
                       AIR SEA DIR/SP/G            HT/PER HT/PER
                 (UTC) (F)     (DEG/KT/KT) (MB)    (FT/S) (FT/S)
64 E VA BEACH    1010   76 77   60/ 16/ 19 1016.6
64 E VA BEACH    0930   76 77                N/A     3/ 7
DUCK PIER        0948   77      70/ 20/ 23 1015.9
2 E DUCK         0956      78                N/A     4/ 5
10 NE DUCK       0956      80                N/A     4/ 4
OREGON INLET     0942   75 80   60/ 14/ 18 1015.1
13E OREGON INLT  0956      78                N/A     5/ 5   2/ 8
HATTERAS CG      0948   75 80   80/  4/  6 1014.9
DIAMOND BUOY     1010   76 83   50/  8/ 14 1014.2
CAPE LOOKOUT     1000   78      20/  7/  7 1014.4
BEAUFORT LAB     0948   76 84   10/  5/  5 1014.8
30 SE NEW RVR IN 1008   80     210/  4/  8 1013.4
30 SE NEW RVR IN 0956      83                N/A     4/ 7
27 SE WRIGHTSVLE 1008   79 82  300/  2/  6 1013.4
5 SE WRIGHTSVLE  0908   79 83  110/  4/  8 1013.7
27 SE WRIGHTSVL  1008   79 82  300/  2/  6 1013.4
FRYING PAN BUOY  1010   80     120/  4/  6 1013.6
225 S CAPE HAT   1000   82 83  190/ 19/ 23 1017.2
41 SE CHARLESTON 1010   80 83  300/  4/  6 1013.7

$$



USA.gov is the U.S. government's official web portal to all federal, state and local government web resources and services.